Flag for Mexico Weather past 2 weeks in Guadalajara, Jalisco, Mexico

Now
72 °F

Clear.


Feels Like: 76 °F
Forecast: 46 / 81 °F
Wind: 10 mph from West

Location: Don Miguel / Guadalaj

Current Time: Mar 2, 2015 at 11:05:36 PM

Latest Report: Mar 2, 2015 at 8:47 PM


Visibility: 10 mi

Pressure: 29.88 "Hg

Humidity: 31%

Dew point: 39 °F

Location of GuadalajaraLocation

Historic Weather in Guadalajara — Graph

°F

Guadalajara temperature yesterday

Maximum temperature yesterday: 84 °F (at 2:48 PM)
Minimum temperature yesterday: 43 °F (at 6:54 AM)
Average temperature yesterday: 65 °F

Past Weeks' High & Low Weather Summary

 TemperatureHumidityPressure
High88 °F (Feb 23, 2:52 PM)93% (Feb 18, 6:50 AM)30.30 "Hg (Feb 18, 6:50 AM)
Low41 °F (Feb 27, 7:55 AM)6% (Feb 27, 2:54 PM)29.69 "Hg (Feb 27, 2:54 PM)
Average65 °F45%30.07 "Hg
* Reported Feb 15 8:49 PM — Mar 2 8:47 PM, Guadalajara, Weather by CustomWeather, © 2015

Note: Actual official high and low records may vary slightly from our data, if they occured in-between our weather recording intervals... More about our weather records

Advertising

Guadalajara weather history for previous 24 hours

 ConditionsComfort  
Time TempWeatherWind HumidityBarometerVisibility
8:47 PM
Mon, Mar 2
72 °FClear.10 mph31%29.88 "Hg10 mi
7:46 PM73 °FClear.8 mph27%30.12 "Hg10 mi
6:54 PM79 °FSunny.8 mph23%30.09 "Hg10 mi
5:48 PM84 °FSunny.13 mph16%29.79 "Hg10 mi
4:48 PM84 °FSunny.No wind15%30.07 "Hg8 mi
2:50 PM82 °FSunny.6 mph17%29.81 "Hg8 mi
1:52 PM81 °FSunny.5 mph18%30.16 "Hg10 mi
12:49 PM79 °FSunny.5 mph20%30.21 "Hg10 mi
11:52 AM75 °FSunny.3 mph21%29.93 "Hg10 mi
10:51 AM73 °FSunny.5 mph23%30.28 "Hg10 mi
9:50 AM68 °FSunny.No wind35%30.28 "Hg10 mi
8:52 AM61 °FSunny.No wind52%29.96 "Hg10 mi
7:46 AM50 °FSunny.No wind71%30.26 "Hg10 mi
6:49 AM50 °FClear.No wind71%30.23 "Hg10 mi
5:44 AM50 °FPassing clouds.No wind71%29.95 "Hg10 mi
4:49 AM52 °FPassing clouds.No wind72%30.23 "Hg10 mi
3:49 AM52 °FClear.No wind72%30.23 "Hg10 mi
2:45 AM54 °FClear.6 mph63%29.93 "Hg10 mi
1:46 AM57 °FClear.No wind55%30.25 "Hg10 mi
12:51 AM61 °FClear.3 mph52%30.26 "Hg10 mi
Weather by CustomWeather, © 2015

See weather overviewHow to use our weather pages